Regional Weather Roundup
Issued by NWS Jackson, KY

Home | Current Version | Previous Version | Text Only | Print | Product List | Glossary On
Versions: 1 2 3 4 5 6 7 8 9 10 11 12 13 14 15 16 17 18 19 20 21 22 23 24 25 26 27 28 29 30 31 32 33 34 35 36 37 38 39 40 41 42 43 44 45 46 47 48 49 50
000
ASUS43 KJKL 281610
RWRJKL

EAST KENTUCKY HOURLY WEATHER ROUNDUP
NATIONAL WEATHER SERVICE JACKSON KY
1100 AM EST SAT FEB 28 2015

NOTE: "FAIR" INDICATES FEW OR NO CLOUDS BELOW 12,000 FEET WITH
NO SIGNIFICANT WEATHER AND/OR OBSTRUCTIONS TO VISIBILITY.

* THESE REPORTS ARE NOT UNDER NWS QUALITY CONTROL AND MAY NOT
  REPORT WEATHER SUCH AS PRECIPITATION AND FOG.

KYZ079-080-083-085-087-088-110-112-115-119-120-281700
...EASTERN KENTUCKY...

CITY           SKY/WX    TMP DP  RH WIND       PRES   REMARKS
JACKSON        SUNNY     28  10  46 VRB3      30.63S
LONDON         MOSUNNY   28  10  46 E3        30.62S
SOMERSET*      PTSUNNY   30  12  47 E3        30.65F
MONTICELLO*    MOSUNNY   31  15  51 E5        30.65F WCI  26
MIDDLESBORO*   CLOUDY    32  15  50 CALM      30.63R
HAZARD APT*    CLOUDY    28  12  50 NE3       30.63F
BLACK MTN*       N/A     28  21  74 S8          N/A  WCI  20
PIKEVILLE APT* SUNNY     27  10  50 CALM      30.62
BIG SANDY*     SUNNY     29  11  48 CALM      30.65S
MOREHEAD APT*  PTSUNNY   27   7  43 VRB6G12   30.69F WCI  20
$$

KYZ035-036-041-042-044-050-067-078-099-281700
...CENTRAL KENTUCKY...

CITY           SKY/WX    TMP DP  RH WIND       PRES   REMARKS
MT STERLING*   CLOUDY    27  10  50 E6        30.67F WCI  20
FLEMING/MASON* PTSUNNY   21   7  53 E6        30.70F WCI  14
DANVILLE*      CLOUDY    27  12  54 E7        30.66S WCI  19
RICHMOND*      PTSUNNY   25  10  54 E7        30.65S WCI  17
LEXINGTON      CLOUDY    24   9  52 E8        30.66F WCI  15
FRANKFORT        N/A     22   9  57 E8        30.67F WCI  12
$$

KYZ091>093-OHZ055-061-077-WVZ005-015-034-035-042-281700
...SOUTHERN OHIO/WEST VIRGINIA...

CITY           SKY/WX    TMP DP  RH WIND       PRES   REMARKS
COVINGTON      PTSUNNY   19   4  51 E8        30.70F WCI   9
COLUMBUS       MOSUNNY   17  -1  45 SE7       30.75S WCI   8
DAYTON         CLOUDY    17   1  49 SE9       30.73R WCI   6
WILMINGTON     MOSUNNY   14   1  56 E3        30.71S
HUNTINGTON     SUNNY     25   8  48 N6        30.69F WCI  18
CHARLESTON     MOSUNNY   26   9  48 NE5       30.68F WCI  20
PINEVILLE*     MOSUNNY   32  16  50 MISG      30.66R
BECKLEY        MOSUNNY   22   8  55 SE8G17    30.57S WCI  12
BLUEFIELD      MOSUNNY   28  10  46 S7        30.56S WCI  21
$$

VAZ002-007-008-TNZ017-027-036-066-071-281700
...SOUTHWEST VIRGINIA/EAST TENNESSEE...

CITY           SKY/WX    TMP DP  RH WIND       PRES   REMARKS
WISE*          CLOUDY    34  18  51 S6        30.54S WCI  29
JONESVILLE*    PTSUNNY   32  14  47 N6        30.62F WCI  26
ABINGDON*      MOSUNNY   32  15  49 E12       30.59R WCI  23
BRISTOL        PTSUNNY   30  15  53 E5        30.61R WCI  25
OAK RIDGE      SUNNY     36  18  48 VRB5      30.63S WCI  32
CROSSVILLE     CLOUDY    36  21  54 E5        30.54S WCI  32
NASHVILLE      CLOUDY    31  13  47 NE5       30.62S WCI  26
$$

...KEY TO REMARKS...
VSB - VISIBILITY IN MILES
WCI - WIND CHILL INDEX
HX  - HEAT INDEX

$$



USA.gov is the U.S. government's official web portal to all federal, state and local government web resources and services.